User: anonymous   Login
Location: Newark
(43.3017°N, 122.3854°W)
Time: 21:56:12
(UTC+00:00)
Language:

N. Korean satellite - Orbit

View from above orbital plane
View from above orbital plane
View from above satellite
View from above satellite

Ground track
Ground track

The orbit data is extracted from the following two-line orbital elements,

1 39026U 12072A   20158.57835132 +.00001238 +00000-0 +46408-4 0  9992
2 39026 097.2227 155.6962 0035582 283.5899 076.1379 15.28579682415581
Epoch (UTC): 06 June 2020 13:52:49
Eccentricity: 0.0035582
inclination: 97.2227°
perigee height: 455 km
apogee height: 504 km
right ascension of ascending node: 155.6962°
argument of perigee: 283.5899°
revolutions per day: 15.28579682
mean anomaly at epoch: 76.1379°
orbit number at epoch: 41558

The dashed part of the orbit path shows where the satellite is in the earth's shadow,  

DLR